TimeEST,TemperatureF,Dew PointF,Humidity,Sea Level PressureIn,VisibilityMPH,Wind Direction,Wind SpeedMPH,Gust SpeedMPH,PrecipitationIn,Events,Conditions,WindDirDegrees,DateUTC
12:20 AM,33.8,33.8,100,30.11,2.5,NE,3.5,-,N/A,,Overcast,50,2013-02-23 05:20:00
12:54 AM,34.0,33.1,96,30.15,2.5,North,3.5,-,N/A,,Overcast,360,2013-02-23 05:54:00
1:07 AM,33.8,33.8,100,30.15,3.0,NW,4.6,-,N/A,,Overcast,320,2013-02-23 06:07:00
1:17 AM,33.8,33.8,100,30.14,2.5,North,8.1,-,N/A,,Overcast,350,2013-02-23 06:17:00
1:44 AM,33.8,33.8,100,30.09,1.8,North,12.7,-,N/A,,Overcast,10,2013-02-23 06:44:00
1:54 AM,33.8,33.8,100,30.12,1.8,Calm,Calm,-,N/A,Rain,Light Rain,0,2013-02-23 06:54:00
2:01 AM,33.8,33.8,100,30.11,2.5,NNE,3.5,-,0.00,Rain,Light Rain,20,2013-02-23 07:01:00
2:10 AM,33.8,33.8,100,30.11,3.0,NNE,3.5,-,0.00,,Overcast,20,2013-02-23 07:10:00
2:54 AM,34.0,33.1,96,30.07,5.0,Variable,3.5,-,0.00,,Overcast,0,2013-02-23 07:54:00
3:54 AM,34.0,34.0,100,30.07,4.0,Calm,Calm,-,0.00,,Overcast,0,2013-02-23 08:54:00
4:54 AM,34.0,33.1,96,30.06,5.0,Calm,Calm,-,0.00,,Overcast,0,2013-02-23 09:54:00
5:54 AM,34.0,33.1,96,30.05,5.0,NNE,6.9,-,0.07,Rain,Light Rain,20,2013-02-23 10:54:00
6:54 AM,34.0,33.1,96,30.00,6.0,ENE,6.9,-,0.02,,Overcast,60,2013-02-23 11:54:00
7:54 AM,35.1,33.1,92,30.02,3.0,North,5.8,-,0.02,Rain,Light Rain,10,2013-02-23 12:54:00
8:30 AM,35.6,33.8,93,29.99,6.0,NE,5.8,-,0.03,Rain,Light Rain,50,2013-02-23 13:30:00
8:54 AM,35.1,33.1,92,30.00,5.0,NNE,6.9,-,0.04,Rain,Light Rain,20,2013-02-23 13:54:00
9:13 AM,35.6,33.8,93,29.98,5.0,NE,8.1,-,0.00,Rain,Light Rain,40,2013-02-23 14:13:00
9:32 AM,35.6,35.6,100,29.97,5.0,ENE,4.6,-,0.01,Rain,Light Rain,70,2013-02-23 14:32:00
9:54 AM,36.0,34.0,93,29.99,5.0,NE,4.6,-,0.01,,Overcast,40,2013-02-23 14:54:00
10:54 AM,37.0,35.1,93,29.99,4.0,NE,3.5,-,0.00,Rain,Light Rain,50,2013-02-23 15:54:00
11:54 AM,37.9,36.0,93,29.99,6.0,North,4.6,-,0.00,,Overcast,350,2013-02-23 16:54:00
12:54 PM,39.0,37.0,93,29.97,8.0,Calm,Calm,-,N/A,,Overcast,0,2013-02-23 17:54:00
1:54 PM,42.1,39.0,89,29.92,10.0,Calm,Calm,-,N/A,,Overcast,0,2013-02-23 18:54:00
2:54 PM,44.1,39.9,85,29.91,10.0,Calm,Calm,-,0.01,,Overcast,0,2013-02-23 19:54:00
3:45 PM,46.4,39.2,76,29.89,10.0,Calm,Calm,-,N/A,,Overcast,0,2013-02-23 20:45:00
3:54 PM,46.0,41.0,83,29.91,10.0,Calm,Calm,-,N/A,,Overcast,0,2013-02-23 20:54:00
4:20 PM,46.4,41.0,81,29.89,10.0,Calm,Calm,-,N/A,,Overcast,0,2013-02-23 21:20:00
4:54 PM,46.9,41.0,80,29.90,10.0,Calm,Calm,-,N/A,,Mostly Cloudy,0,2013-02-23 21:54:00
5:16 PM,46.4,41.0,81,29.88,10.0,WNW,3.5,-,N/A,,Mostly Cloudy,300,2013-02-23 22:16:00
5:46 PM,46.4,41.0,81,29.86,10.0,NW,3.5,-,N/A,,Scattered Clouds,310,2013-02-23 22:46:00
5:54 PM,46.0,41.0,83,29.87,10.0,NW,3.5,-,N/A,,Partly Cloudy,320,2013-02-23 22:54:00
6:54 PM,45.0,41.0,86,29.86,10.0,Calm,Calm,-,N/A,,Clear,0,2013-02-23 23:54:00
7:54 PM,45.0,41.0,86,29.85,10.0,Calm,Calm,-,N/A,,Overcast,0,2013-02-24 00:54:00
8:54 PM,45.0,41.0,86,29.86,10.0,Calm,Calm,-,N/A,,Mostly Cloudy,0,2013-02-24 01:54:00
9:54 PM,44.1,41.0,89,29.86,10.0,Calm,Calm,-,N/A,,Mostly Cloudy,0,2013-02-24 02:54:00
10:54 PM,44.1,41.0,89,29.84,8.0,Calm,Calm,-,N/A,,Scattered Clouds,0,2013-02-24 03:54:00
11:54 PM,44.1,41.0,89,29.84,7.0,Calm,Calm,-,N/A,,Overcast,0,2013-02-24 04:54:00